User: anonymous   Login
Location: El Para�so
(10.4896°N, 66.9245°W)
Time: 11:05:48
(UTC+00:00)
Language:

Meteor 2-3 Rocket - Orbit

View from above orbital plane
View from above orbital plane
View from above satellite
View from above satellite

Ground track
Ground track

The orbit data is extracted from the following two-line orbital elements,

1 10515U 77117B   20296.13838079 -.00000015 +00000-0 -15700-4 0  9998
2 10515 081.2435 170.3489 0031817 029.8434 330.4541 14.08703770201986
Epoch (UTC): 22 October 2020 03:19:16
Eccentricity: 0.0031817
inclination: 81.2435°
perigee height: 841 km
apogee height: 887 km
right ascension of ascending node: 170.3489°
argument of perigee: 29.8434°
revolutions per day: 14.08703770
mean anomaly at epoch: 330.4541°
orbit number at epoch: 20198

The dashed part of the orbit path shows where the satellite is in the earth's shadow,  

DLR